Springfield, VT

5:18 AM EDT on October 15, 2019 (GMT -0400)
Hartness State

Weather History for KVSF - August, 2019

Change the Weather History Date:

Thursday, August 22, 2019

  Actual Average Record
Temperature  
Mean Temperature 72 °F 67 °F  
Max Temperature 84 °F 79 °F 89 °F (2017)
Min Temperature 59 °F 55 °F 42 °F (2007)
Degree Days  
Heating Degree Days 0 1  
Month to date heating degree days 8 22  
Since 1 June heating degree days 87 135  
Since 1 July heating degree days 8 39  
Cooling Degree Days 6 3  
Month to date cooling degree days 102 82  
Year to date cooling degree days 380 297  
Since 1 June cooling degree days 373 285  
Growing Degree Days 22 (Base 50)    
Moisture  
Dew Point 63 °F    
Average Humidity 84    
Maximum Humidity 100    
Minimum Humidity 42    
Precipitation  
Precipitation 0.00 in 0.13 in 0.71 in (2014)
Month to date precipitation 1.87 2.75  
Year to date precipitation 24.75 27.34  
Sea Level Pressure  
Sea Level Pressure 29.85 in    
Wind  
Wind Speed 1 mph ()    
Max Wind Speed 15 mph    
Max Gust Speed 26 mph    
Visibility 5.6 miles    
Events Fog    
T = Trace of Precipitation, MM = Missing Value Source: Averaged Metar Reports

Daily Weather History Graph

Daily Weather History Graph

Search for Another Location

Airport or City:

Astronomy

Aug. 22, 2019 Rise Set
Actual Time 6:02 AM EDT 7:42 PM EDT
Civil Twilight 5:32 AM EDT 8:12 PM EDT
Nautical Twilight 4:55 AM EDT 8:49 PM EDT
Astronomical Twilight 4:16 AM EDT 9:28 PM EDT
Moon 11:19 PM EDT (8/22) 12:46 PM EDT (8/22)
Length of Visible Light 14h 40m
Length of Day
13h 39m
Waning Gibbous, 60% of the Moon is Illuminated
Aug 22
Waning Gibbous
Aug 23
Last Quarter
Aug 30
New
Sep 5
First Quarter
Sep 14
Full

Hourly Weather History & Observations

Time (EDT) Temp. Heat Index Dew Point Humidity Pressure Visibility Wind Dir Wind Speed Gust Speed Precip Events Conditions
12:54 AM 64.9 °F - 64.0 °F 97% 29.84 in 0.5 mi Calm Calm - N/A Fog Fog
1:08 AM 64.9 °F - 64.0 °F 97% 29.84 in 1.5 mi Calm Calm - N/A   Overcast
1:18 AM 64.9 °F - 64.0 °F 97% 29.84 in 0.2 mi Calm Calm - N/A Fog Fog
1:54 AM 64.0 °F - 64.0 °F 100% 29.83 in 0.2 mi Calm Calm - N/A Fog Fog
2:54 AM 63.0 °F - 63.0 °F 100% 29.82 in 0.5 mi Calm Calm - N/A Fog Fog
3:05 AM 64.0 °F - 63.0 °F 96% 29.83 in 0.2 mi Calm Calm - N/A Fog Fog
3:54 AM 63.0 °F - 63.0 °F 100% 29.83 in 0.5 mi Calm Calm - N/A Fog Fog
4:07 AM 63.0 °F - 63.0 °F 100% 29.83 in 0.2 mi Calm Calm - N/A Fog Fog
4:22 AM 64.0 °F - 63.0 °F 96% 29.82 in 0.5 mi Calm Calm - N/A Fog Fog
4:54 AM 63.0 °F - 62.1 °F 97% 29.83 in 0.8 mi SW 3.5 mph - N/A   Mist
5:45 AM 64.0 °F - 63.0 °F 96% 29.83 in 2.0 mi Calm Calm - N/A   Overcast
5:54 AM 64.0 °F - 63.0 °F 96% 29.83 in 9.0 mi Calm Calm - N/A   Overcast
6:33 AM 64.0 °F - 63.0 °F 96% 29.85 in 2.0 mi Calm Calm - N/A   Overcast
6:39 AM 64.0 °F - 63.0 °F 96% 29.85 in 0.8 mi Calm Calm - N/A   Overcast
6:54 AM 64.0 °F - 63.0 °F 96% 29.85 in 0.2 mi SSW 3.5 mph - N/A Fog Fog
7:04 AM 64.0 °F - 63.0 °F 96% 29.85 in 0.5 mi Calm Calm - N/A Fog Fog
7:12 AM 64.0 °F - 63.0 °F 96% 29.86 in 2.5 mi Calm Calm - N/A   Overcast
7:19 AM 64.0 °F - 63.0 °F 96% 29.86 in 4.0 mi Calm Calm - N/A   Overcast
7:25 AM 64.0 °F - 63.0 °F 96% 29.86 in 1.8 mi Calm Calm - N/A   Overcast
7:37 AM 64.0 °F - 63.0 °F 96% 29.86 in 3.0 mi Calm Calm - N/A   Overcast
7:54 AM 64.0 °F - 63.0 °F 96% 29.86 in 3.0 mi Calm Calm - N/A   Overcast
8:15 AM 64.9 °F - 64.0 °F 97% 29.86 in 2.5 mi Calm Calm - N/A   Overcast
8:22 AM 64.0 °F - 63.0 °F 96% 29.86 in 9.0 mi Calm Calm - N/A   Overcast
8:54 AM 66.0 °F - 64.0 °F 93% 29.86 in 10.0 mi Calm Calm - N/A   Overcast
9:03 AM 66.9 °F - 64.9 °F 93% 29.86 in 10.0 mi Calm Calm - N/A   Overcast
9:52 AM 69.8 °F - 66.2 °F 88% 29.87 in 10.0 mi Calm Calm - N/A   Overcast
9:54 AM 69.1 °F - 66.0 °F 90% 29.86 in 10.0 mi Calm Calm - N/A   Overcast
10:52 AM 73.4 °F - 68.0 °F 83% 29.86 in 10.0 mi Calm Calm - N/A   Scattered Clouds
10:54 AM 73.9 °F - 68.0 °F 82% 29.86 in 10.0 mi Calm Calm - N/A   Scattered Clouds
11:54 AM 79.0 °F - 68.0 °F 69% 29.85 in 10.0 mi Calm Calm - N/A   Mostly Cloudy
12:54 PM 82.0 °F 83.0 °F 62.1 °F 51% 29.84 in 10.0 mi West 8.1 mph - N/A   Partly Cloudy
1:54 PM 84.0 °F 84.4 °F 61.0 °F 46% 29.83 in 10.0 mi WSW 12.7 mph - N/A   Clear
2:54 PM 84.0 °F 83.8 °F 59.0 °F 43% 29.83 in 10.0 mi West 11.5 mph 24.2 mph N/A   Partly Cloudy
3:54 PM 81.0 °F 81.3 °F 59.0 °F 47% 29.83 in 10.0 mi West 10.4 mph 21.9 mph N/A   Clear
4:54 PM 80.1 °F 80.2 °F 55.9 °F 43% 29.84 in 10.0 mi West 10.4 mph - N/A   Clear
5:54 PM 79.0 °F - 57.0 °F 47% 29.84 in 10.0 mi West 8.1 mph - N/A   Clear
6:54 PM 75.9 °F - 59.0 °F 56% 29.86 in 10.0 mi WNW 6.9 mph - N/A   Partly Cloudy
7:54 PM 72.0 °F - 60.1 °F 66% 29.86 in 10.0 mi WNW 4.6 mph - N/A   Clear
8:54 PM 69.1 °F - 61.0 °F 75% 29.88 in 10.0 mi WSW 3.5 mph - N/A   Clear
9:54 PM 69.1 °F - 57.9 °F 68% 29.89 in 10.0 mi WSW 4.6 mph - N/A   Clear
10:54 PM 66.0 °F - 59.0 °F 78% 29.90 in 10.0 mi Calm Calm - N/A   Clear
11:54 PM 63.0 °F - 57.9 °F 84% 29.92 in 10.0 mi North 4.6 mph - N/A   Clear